Showing default

FLOCK 4Q 16, 58271

Orbit data source: Space-Track

FLOCK 4Q 16, 58271 is a payload satellite owned by Planet (US) in SSO that was launched on Sat, 11 Nov 2023 UTC via an FALCON 9 launch vehicle from the Air Force Western Test Range (AFWTR). Payload-class satellites include a variety of spacecraft equipped with specific instruments for various scientific and technological missions. These include communications satellites like Starlink; space stations such as the ISS; scientific satellites like the Hubble; Earth observation satellites from companies like Planet Labs, Umbra, and HawkEye 360; GPS; miniature CubeSats for education and research; and military/defense satellites.

Loading next visibility...
Identifier
58271, 2023-174R
Orbit
SSO
Country
Flag of USUS
Related business
Manufacturer
Planet
Mission
Operational Commercial Imaging
Bus & Motor
CUBESAT 3U, Unknown motor
Mass
5.7 kg wet, 5.7 kg dry
Launch date (UTC)
2023-11-11 (2 years ago)
Launch vehicle
FALCON 9
Launch site
Air Force Western Test Range (AFWTR)
Object type
Payload
Rocket body
Debris
Shape & HBR
Box + 2 Pan, 1.0 m
Radar Cross Section
0.072 m², Medium (>0.1 m² and < 1m²)

Expand to show TLE details & history
Last TLE update: 8 hours ago

TLE from 8 hours ago
0 FLOCK 4Q 16
1 58271U 23174R   26126.74102285  .00017642  00000-0  34485-3 0  9993
2 58271  97.3820 213.9505 0004677 314.7406  45.3463 15.47500601139162
Epoch: 2026-05-06T17:47Z
TLE epoch observation values (Epoch: 2026-05-06T17:47:04.374Z)
Latitude
Longitude
82.58511°
Altitude
424.933 km
Speed
7.658 km/s
True Right ascension
14h 15m 48s
True Declination
0° 00' 00"
Sunlit
Object was in full shadow at epoch
Visualization orbit readout
Latitude
Unknown
Longitude
Unknown
Altitude
Unknown
Speed
Unknown
Apparent Right ascension
Unknown
Apparent Declination
Unknown
Sunlit
N/A
Visualization observer readout
Local Sidereal Time
09:18:38
Azimuth
Unknown
Elevation
Unknown
Doppler factor
Unknown
Orbital elements
Apogee altitude
424.149 km
Perigee altitude
417.789 km
Semi-major axis
6,799.106 km
Eccentricity
0.00047
Inclination
97.382°
RAAN
213.9505°
Arg. of periapsis
314.7406°
True anomaly
45.38444°
Mean anomaly
45.3463°
Eccentric anomaly
45.36537°
Mean motion
3.87138 °/min
Orbital period
92.99 mins
BSTAR
0.00034485
Loading maneuver chart data...
Computing Atmospheric mass density...
Loading historical data...
Loading historical data...
Loading historical data...
Loading historical data...
Loading historical data...
Loading historical data...
Loading historical data...

Documentation

Showing up to 5 results
|